Waarnemingen

Advertentie
Mijn weer
Rostherne No 2, Groot Brittannië (3351): temperatuur & dauwpunt: 07.08.2020 21:00:00 - 13.08.2020 21:00:00 (BST)Rostherne No 2, Groot Brittannië (3351): windsnelheid: 07.08.2020 21:00:00 - 13.08.2020 21:00:00 (BST)Rostherne No 2, Groot Brittannië (3351): windrichting: 07.08.2020 21:00:00 - 13.08.2020 21:00:00 (BST)Rostherne No 2, Groot Brittannië (3351): luchtdruk: 07.08.2020 21:00:00 - 13.08.2020 21:00:00 (BST)Rostherne No 2, Groot Brittannië (3351): zicht: 07.08.2020 21:00:00 - 13.08.2020 21:00:00 (BST)Rostherne No 2, Groot Brittannië (3351): Zonneschijnduur: 07.08.2020 21:00:00 - 13.08.2020 21:00:00 (BST)Rostherne No 2, Groot Brittannië (3351): neerslag: 07.08.2020 21:00:00 - 13.08.2020 21:00:00 (BST)
Datum & Tijd tt [°C] td [°C] ff [km/u] ff [kn] dd ppp [hPa] vv [km] sd [min] rr [mm]
13.08.2020 21:00:00 18,3 15,3 11 6 ONO 1015,1 17 0 0,0
13.08.2020 20:00:00 19,7 16,0 11 6 NO 1014,8 22 0 0,0
13.08.2020 19:00:00 20,8 16,2 13 7 O 1014,4 17 0 0,0
13.08.2020 18:00:00 21,6 16,9 11 6 ONO 1014,4 30 36 0,0
13.08.2020 17:00:00 21,4 16,9 13 7 ONO 1014,4 22 6 0,0
13.08.2020 16:00:00 22,2 16,8 15 8 ONO 1014,3 25 48 0,0
13.08.2020 15:00:00 22,9 17,2 16 9 O 1014,6 30 54 0,0
13.08.2020 14:00:00 23,6 17,5 9 5 ONO 1014,9 27 30 0,0
13.08.2020 13:00:00 23,8 17,8 16 9 ONO 1014,4 18 60 0,0
13.08.2020 12:00:00 24,0 18,0 9 5 ONO 1014,3 17 60 0,0
13.08.2020 11:00:00 23,4 17,7 13 7 ONO 1014,2 16 60 0,0
13.08.2020 10:00:00 22,7 18,1 9 5 ONO 1014,2 24 60 0,0
13.08.2020 09:00:00 21,1 18,2 9 5 NNO 1014,0 16 60 0,0
13.08.2020 08:00:00 19,2 17,7 8 4 NO 1013,9 11 18 0,0
13.08.2020 07:00:00 18,3 17,8 8 4 NO 1013,8 9 6 0,0
13.08.2020 06:00:00 17,7 17,6 5 3 NO 1013,7 9 0 0,0
13.08.2020 05:00:00 16,9 16,7 4 2 NW 1013,8 3,2 0 0,0
13.08.2020 04:00:00 17,7 17,5 4 2 N 1014,1 5 0 0,0
13.08.2020 03:00:00 18,1 17,7 4 2 ZZO 1014,0 9 0 0,0
13.08.2020 02:00:00 18,9 18,4 8 4 ZO 1014,0 11 0 0,0
13.08.2020 01:00:00 19,1 18,7 8 4 ONO 1014,7 11 - 0,8
13.08.2020 00:00:00 18,9 18,2 9 5 O 1016,1 10 0 1,6
12.08.2020 23:00:00 19,9 17,4 15 8 ZW 1015,9 19 0 0,0
12.08.2020 22:00:00 22,0 19,9 4 2 N 1014,6 11 0 0,0
12.08.2020 21:00:00 23,4 19,6 13 7 W 1013,8 12 0 0,0
12.08.2020 20:00:00 27,0 19,2 8 4 O 1012,4 30 0 0,0
12.08.2020 19:00:00 27,8 19,4 8 4 ONO 1012,3 21 0 0,0
12.08.2020 18:00:00 29,8 19,2 8 4 OZO 1012,5 21 54 0,0
12.08.2020 17:00:00 30,1 20,1 9 5 OZO 1012,9 21 60 0,0
12.08.2020 16:00:00 30,0 19,7 9 5 ZZO 1013,2 15 60 0,0
12.08.2020 15:00:00 30,1 20,6 9 5 Z 1013,6 27 60 0,0
12.08.2020 14:00:00 30,2 19,4 4 2 NW 1013,7 21 60 0,0
12.08.2020 13:00:00 28,5 19,2 5 3 O 1014,1 25 60 0,0
12.08.2020 12:00:00 27,9 19,4 4 2 O 1014,2 40 60 0,0
12.08.2020 11:00:00 25,5 19,9 4 2 N 1014,5 20 60 0,0
12.08.2020 10:00:00 23,1 20,3 4 2 ONO 1014,8 12 60 0,0
12.08.2020 09:00:00 20,2 20,2 2 1 ZO 1014,4 4,5 24 0,0
12.08.2020 08:00:00 17,8 17,8 5 3 ZZO 1014,6 0,7 42 0,0
12.08.2020 07:00:00 17,0 17,0 5 3 OZO 1014,2 2,8 0 0,0
12.08.2020 06:00:00 16,2 16,0 4 2 W 1014,0 2,1 0 0,2
12.08.2020 05:00:00 16,6 16,3 8 4 NW 1013,4 5 0 0,0
12.08.2020 04:00:00 17,2 16,7 2 1 N 1013,3 5 0 0,0
12.08.2020 03:00:00 18,4 17,8 5 3 N 1014,5 9 0 0,0
12.08.2020 02:00:00 19,2 17,4 8 4 ZZO 1014,6 40 0 0,6
12.08.2020 01:00:00 19,8 19,0 11 6 ZO 1015,2 3,6 - 0,8
12.08.2020 00:00:00 20,6 19,5 5 3 ZW 1015,2 6 0 0,0
11.08.2020 23:00:00 21,0 19,1 4 2 NW 1014,5 10 0 0,0
11.08.2020 22:00:00 22,0 19,7 9 5 NW 1015,1 13 0 0,0
11.08.2020 21:00:00 22,9 20,1 9 5 NNW 1014,5 14 0 0,0
11.08.2020 20:00:00 24,2 20,8 11 6 NW 1014,1 15 0 0,0
11.08.2020 19:00:00 28,4 23,0 2 1 Z 1013,7 16 18 0,0
11.08.2020 18:00:00 29,1 19,0 4 2 Z 1014,0 20 42 0,0
11.08.2020 17:00:00 29,6 20,3 5 3 NNW 1014,1 15 60 0,0
11.08.2020 16:00:00 29,3 21,1 5 3 W 1014,6 12 60 0,0
11.08.2020 15:00:00 27,6 20,5 4 2 W 1015,0 11 60 0,0
11.08.2020 14:00:00 26,6 20,2 4 2 N 1015,3 11 60 0,0
11.08.2020 13:00:00 25,8 20,5 5 3 WNW 1015,9 9 42 0,0
11.08.2020 12:00:00 23,8 18,6 4 2 ZW 1016,0 12 30 0,0
11.08.2020 11:00:00 23,0 20,3 4 2 W 1016,1 9 12 0,0
11.08.2020 10:00:00 20,6 18,8 5 3 WZW 1016,0 10 0 0,0
11.08.2020 09:00:00 19,4 18,0 4 2 O 1016,0 7 0 0,2
11.08.2020 08:00:00 18,4 17,4 4 2 O 1015,7 8 0 0,0
11.08.2020 07:00:00 17,7 16,7 2 1 NO 1015,5 8 0 0,0
11.08.2020 06:00:00 17,7 16,7 11 6 ONO 1015,6 7 0 0,2
11.08.2020 05:00:00 17,5 16,6 9 5 O 1015,9 6 0 0,6
11.08.2020 04:00:00 17,9 16,8 13 7 NO 1016,3 6 0 0,0
11.08.2020 03:00:00 18,0 17,0 13 7 NNO 1016,1 8 0 0,0
11.08.2020 02:00:00 18,0 17,6 15 8 NNW 1016,4 4,6 0 15,0
11.08.2020 01:00:00 20,0 17,1 9 5 W 1016,3 9 - 0,0
11.08.2020 00:00:00 20,6 16,4 5 3 ONO 1015,0 23 0 0,0
10.08.2020 23:00:00 21,7 16,5 9 5 O 1015,1 24 0 0,0
10.08.2020 22:00:00 22,8 17,4 13 7 O 1015,0 23 0 0,0
10.08.2020 21:00:00 21,1 18,8 4 2 NW 1015,2 16 0 0,0
10.08.2020 20:00:00 21,6 18,5 5 3 NW 1015,0 19 18 0,0
10.08.2020 19:00:00 22,6 18,1 16 9 NW 1015,2 25 0 0,0
10.08.2020 18:00:00 26,3 18,6 8 4 NW 1015,1 23 6 0,0
10.08.2020 17:00:00 27,5 17,8 4 2 NNO 1015,4 22 42 0,0
10.08.2020 16:00:00 26,5 17,3 13 7 NO 1015,4 16 54 0,0
10.08.2020 15:00:00 26,3 17,1 13 7 NO 1015,8 17 36 0,0
10.08.2020 14:00:00 25,7 17,6 8 4 ONO 1015,9 30 6 0,0
10.08.2020 13:00:00 24,4 16,5 8 4 NO 1015,5 35 6 0,0
10.08.2020 12:00:00 23,7 15,7 9 5 NNO 1016,1 20 60 0,0
10.08.2020 11:00:00 22,5 16,1 9 5 NO 1016,4 20 36 0,0
10.08.2020 10:00:00 20,5 15,5 8 4 NO 1016,8 22 18 0,0
10.08.2020 09:00:00 19,4 15,5 8 4 ONO 1016,9 17 42 0,0
10.08.2020 08:00:00 18,2 15,0 8 4 NO 1016,9 25 36 0,0
10.08.2020 07:00:00 15,6 14,8 4 2 N 1017,2 17 0 0,0
10.08.2020 06:00:00 15,2 14,1 4 2 N 1017,3 12 0 0,0
10.08.2020 05:00:00 15,7 14,2 4 2 NO 1017,5 15 0 0,0
10.08.2020 04:00:00 16,0 14,4 5 3 NO 1017,7 16 0 0,0
10.08.2020 03:00:00 16,0 14,4 5 3 NNO 1018,0 17 0 0,0
10.08.2020 02:00:00 16,5 14,6 8 4 NO 1018,2 12 0 0,0
10.08.2020 01:00:00 16,9 14,8 8 4 ONO 1018,2 10 - 0,0
10.08.2020 00:00:00 17,3 14,8 8 4 ONO 1018,5 10 0 0,0
09.08.2020 23:00:00 17,9 15,0 8 4 ONO 1018,5 12 0 0,0
09.08.2020 22:00:00 18,2 15,4 4 2 ONO 1018,2 14 0 0,0
09.08.2020 21:00:00 18,9 15,7 5 3 ZO 1018,1 15 0 0,0
09.08.2020 20:00:00 20,1 15,8 9 5 ZO 1018,1 15 6 0,0
09.08.2020 19:00:00 21,3 16,1 11 6 ZO 1018,2 17 18 0,0
09.08.2020 18:00:00 22,6 15,4 13 7 OZO 1018,2 16 48 0,0
09.08.2020 17:00:00 23,5 16,3 9 5 O 1018,5 15 60 0,0
09.08.2020 16:00:00 23,8 16,0 9 5 O 1018,8 19 54 0,0
09.08.2020 15:00:00 23,3 16,5 11 6 NO 1019,1 15 60 0,0
09.08.2020 14:00:00 22,1 15,2 11 6 O 1019,6 20 54 0,0
09.08.2020 13:00:00 21,6 15,3 9 5 ONO 1020,2 14 36 0,0
09.08.2020 12:00:00 19,6 14,5 11 6 ONO 1020,6 21 18 0,0
09.08.2020 11:00:00 18,8 14,1 11 6 NO 1021,0 30 6 0,0
09.08.2020 10:00:00 18,2 14,6 9 5 ONO 1021,3 45 24 0,0
09.08.2020 09:00:00 17,4 13,9 13 7 O 1021,8 35 30 0,0
09.08.2020 08:00:00 15,6 13,0 11 6 ONO 1022,0 26 54 0,0
09.08.2020 07:00:00 14,9 12,7 11 6 ONO 1022,1 28 6 0,0
09.08.2020 06:00:00 14,4 12,3 11 6 ONO 1022,2 27 0 0,0
09.08.2020 05:00:00 14,4 12,1 11 6 ONO 1022,4 35 0 0,0
09.08.2020 04:00:00 14,3 11,9 11 6 ONO 1022,7 35 0 0,0
09.08.2020 03:00:00 14,5 11,8 11 6 ONO 1022,6 30 0 0,0
09.08.2020 02:00:00 14,8 11,6 9 5 ONO 1022,5 35 0 0,0
09.08.2020 01:00:00 15,3 11,5 9 5 ONO 1022,7 45 - 0,0
09.08.2020 00:00:00 16,2 11,6 16 9 O 1022,7 50 0 0,0
08.08.2020 23:00:00 16,9 12,1 13 7 ONO 1022,7 50 0 0,0
08.08.2020 22:00:00 18,3 12,4 13 7 O 1022,7 35 0 0,0
08.08.2020 21:00:00 19,6 13,2 16 9 O 1022,4 40 12 0,0
08.08.2020 20:00:00 21,3 13,5 18 10 O 1022,1 35 48 0,0
08.08.2020 19:00:00 23,1 14,8 18 10 O 1021,6 30 36 0,0
08.08.2020 18:00:00 23,8 16,4 15 8 O 1021,6 30 6 0,0
08.08.2020 17:00:00 24,0 16,5 13 7 OZO 1021,7 35 6 0,0
08.08.2020 16:00:00 25,7 17,7 8 4 NO 1021,8 35 6 0,0
08.08.2020 15:00:00 24,3 16,4 5 3 ONO 1022,0 35 18 0,0
08.08.2020 14:00:00 24,4 16,9 5 3 ONO 1022,3 30 6 0,0
08.08.2020 13:00:00 24,0 17,7 5 3 NNO 1022,3 35 6 0,0
08.08.2020 12:00:00 23,3 16,1 8 4 N 1022,5 40 36 0,0
08.08.2020 11:00:00 22,2 17,1 8 4 NNW 1022,5 30 54 0,0
08.08.2020 10:00:00 20,9 17,7 9 5 NW 1022,6 35 30 0,0
08.08.2020 09:00:00 19,8 18,3 9 5 NW 1022,8 17 24 0,0
08.08.2020 08:00:00 17,7 17,3 8 4 NW 1022,5 14 0 0,0
08.08.2020 07:00:00 16,6 16,3 9 5 NW 1022,3 8 0 0,0
08.08.2020 06:00:00 16,7 16,2 5 3 NW 1022,0 9 0 0,0
08.08.2020 05:00:00 17,2 16,4 5 3 NNW 1021,5 30 0 0,0
08.08.2020 04:00:00 17,2 16,7 5 3 NNW 1021,2 30 0 0,0
08.08.2020 03:00:00 16,9 16,8 8 4 NNW 1020,7 20 0 0,0
08.08.2020 02:00:00 14,9 14,4 5 3 NW 1020,6 7 0 0,0
08.08.2020 01:00:00 16,0 15,2 4 2 NW 1020,4 10 - 0,0
08.08.2020 00:00:00 17,3 16,6 11 6 NW 1019,9 16 0 0,0
07.08.2020 23:00:00 17,3 16,6 8 4 NW 1019,4 20 0 0,0
07.08.2020 22:00:00 18,0 16,2 5 3 WNW 1018,9 45 0 0,0
07.08.2020 21:00:00 20,2 17,4 8 4 NW 1018,2 45 18 0,0

tt = temperatuur
td = dauwpunt
ff = windsnelheid
dd = windrichting
ppp = luchtdruk
vv = zicht
sd = Zonneschijnduur
rr = neerslag

Weerstations in de omgeving